Tracking 25734 objects as of 28-May-2022
HD Live streaming from Space Station
objects crossing your sky now

COSMOS 1275 DEB

Track COSMOS 1275 DEB now!
10-day predictions


NORAD ID: 13817
Int'l Code: 1981-053HQ
Perigee: 876.1 km
Apogee: 917.3 km
Inclination: 82.9 °
Period: 102.8 minutes
Semi major axis: 7267 km
RCS: 0.0127 m2 (small)
Launch date: June 4, 1981
Source: Commonwealth of Independent States (former USSR) (CIS)
Launch site: PLESETSK MISSILE AND SPACE COMPLEX (PKMTR)

Note: This is SATELLITE DEBRIS
aabbcc
Your satellite tracking list
Your tracking list is empty




NASA's NSSDC Master Catalog

Two Line Element Set (TLE):
1 13817U 81053HM  22147.82437248  .00001235  00000-0  80822-3 0  9995
2 13817  82.9459 349.7960 0028315  34.3493 325.9501 14.01215770 48052
Source of the keplerian elements: AFSPC